Location: Mahannah Oil Field
(37.4664°N, 96.6003°W)
Time: 17:56:41
(UTC+00:00)

Vanguard 2 - Pass Details

Date: 26 June 2021
Orbit: 552 x 2937 km, 32.9° (Epoch: 26 July)

Event Time Altitude Azimuth Distance (km) Brightness Sun altitude
Rises 03:31:07 0° 279° (W) 5,509 12.8 -16.2°
Reaches altitude 10° 03:35:52 10° 271° (W) 4,070 11.8 -16.8°
Maximum altitude 03:44:02 29° 217° (SW) 2,137 9.6 -17.8°
Enters shadow 03:47:16 20° 177° (S) 2,217 9.4 -18.2°
